www.pogodaiklimat.ru

Погода и климат >> Архив погоды >> Пакистан >> Рахим Яр Хан


ПОГОДА в Рахим Яр Хан

  • Прогноз погоды в Рахим Яр Хан
  • Монитор погоды в Рахим Яр Хан

АРХИВ ПОГОДЫ в Рахим Яр Хан

Время (UTC), дата Ветер
(напр.,м/с)
 
Видим.   Явления Облачность Т
(С)
Тd
(С)
f
(%)
Тe
(С)
Тes
(С)
Комфортность P
(гПа)
Po
(гПа)
Тmin
(С)
Tmax
(С)
R
(мм)
R24
(мм)
S
(см)
09 13.04 штиль 0 4000 м 4/0
[Ac trans]
+34.5 +18.6 39 +39 +56 опасность
солнечного
удара
1009.7 1000.4
12 13.04 штиль 0 4000 м ясно +35.0 +20.2 42 +41 +45 опасность
перегрева
1006.7 997.5 +36.8
15 13.04 штиль 0 4000 м ясно +31.5 +18.5 46 +36 +36 очень
душно
1008.7 999.4
18 13.04 СВ 1 4000 м ясно +28.0 +18.8 57 +33 +33 очень
душно
1010.9 1001.4
21 13.04 штиль 0 4000 м ясно +25.0 +17.9 65 +29 +29 душно 1010.2 1000.6
00 14.04 штиль 0 4000 м ясно +23.0 +16.5 67 +28 +28 душно 1009.9 1000.3
03 14.04 СВ 1 4000 м ясно +24.0 +18.5 71 +28 +34 душно 1012.0 1002.4 +21.8
06 14.04 СВ 1 4000 м ясно +31.5 +17.5 43 +35 +56 опасность
солнечного
удара
1012.9 1003.5
15 14.04 штиль 0 4000 м ясно +31.5 +21.2 54 +39 +39 очень
душно
1008.8 999.5
18 14.04 штиль 0 4000 м ясно +29.5 +19.7 56 +36 +36 очень
душно
1009.7 1000.3
21 14.04 штиль 0 4000 м ясно +27.0 +19.3 63 +33 +33 очень
душно
1008.8 999.3
00 15.04 штиль 0 4000 м ясно +24.0 +17.6 67 +28 +28 душно 1008.6 999.0
03 15.04 СВ 1 4000 м гроза, ливневой дождь 10/10 600 м
[Cu med, cong Ac trans]
+22.0 +18.9 83 +27 +27 душно 1011.7 1002.0 +19.2 2
06 15.04 СВ 2 4000 м 4/0
[Ac trans]
+29.0 +17.2 49 +33 +47 очень
душно
1009.7 1000.3
09 15.04 СВ 4 4000 м 5/5 900 м
[Sc]
+33.0 +16.6 38 +36 +42 очень
душно
1009.2 999.9
12 15.04 штиль 0 4000 м 5/0
[Ac trans]
+28.5 +17.5 51 +33 +36 очень
душно
1007.7 998.3 +33.8
18 15.04 СВ 1 4000 м ясно +22.5 +15.9 66 +27 +27 душно 1009.5 999.9
21 15.04 штиль 0 4000 м ясно +21.0 +14.2 65 +24 +24 комфорт 1008.8 999.1
00 16.04 СВ 1 4000 м ясно +19.5 +14.4 72 +22 +22 комфорт 1008.3 998.6
06 16.04 ЮЗ 1 4000 м 4/1 900 м
[Cu hum Ac trans]
+28.5 +14.6 43 +31 +46 душно 1008.0 998.6
09 16.04 штиль 0 4000 м в посл. час гроза {морось} 9/4 1050 м
[Sc As trans]
+19.5 +16.2 81 +21 +28 комфорт 1007.0 997.3 9
12 16.04 З 4 4000 м 4/0
[Ac trans]
+25.0 +16.1 58 +28 +30 жарко 1005.6 996.1 +29.4
15 16.04 З 2 4000 м ясно +20.5 +15.5 73 +24 +24 комфорт 1006.1 996.4
18 16.04 штиль 0 4000 м ясно +18.5 +15.1 81 +19 +19 1008.1 998.3
21 16.04 штиль 0 4000 м ясно +17.0 +14.4 85 +17 +17 1008.0 998.2
00 17.04 С 1 4000 м дым 6/0
[Ac trans]
+17.0 +13.5 80 +18 +18 1008.0 998.2
06 17.04 С 3 4000 м 3/3 900 м
[Sc]
+24.0 +16.8 64 +28 +38 душно 1012.3 1002.7
09 17.04 С 2 4000 м 5/5 900 м
[Sc diur, vesp]
+26.5 +16.0 52 +30 +38 душно 1011.1 1001.6
12 17.04 С 1 4000 м ясно +28.0 +14.9 45 +31 +34 душно 1009.5 1000.0 +28.2
18 17.04 С 1 4000 м ясно +21.5 +16.6 74 +25 +25 комфорт 1013.8 1004.1
21 17.04 С 1 4000 м ясно +19.5 +16.2 81 +23 +23 комфорт 1013.5 1003.7
00 18.04 СВ 1 4000 м ясно +18.5 +16.0 85 +20 +20 1013.8 1004.0
03 18.04 СВ 1 4000 м ясно +21.0 +16.9 77 +26 +32 душно 1015.8 1006.1 +17.7
06 18.04 СВ 2 4000 м ясно +26.5 +16.0 52 +30 +48 душно 1016.3 1006.7
09 18.04 штиль 0 4000 м ясно +30.0 +14.5 39 +32 +55 опасность
солнечного
удара
1014.2 1004.8
12 18.04 СВ 1 4000 м ясно +30.5 +15.2 40 +33 +37 душно 1012.4 1003.0 +31.0
15 18.04 штиль 0 4000 м ясно +27.0 +15.7 50 +30 +30 душно 1012.9 1003.4
18 18.04 штиль 0 4000 м ясно +24.0 +15.8 60 +27 +27 жарко 1013.9 1004.3
00 19.04 штиль 0 4000 м ясно +19.0 +15.6 81 +20 +20 1012.8 1003.0
03 19.04 штиль 0 4000 м дым ясно +23.0 +16.5 67 +28 +34 душно 1013.4 1003.7 +18.0
06 19.04 штиль 0 4000 м ясно +31.0 +14.8 37 +33 +58 опасность
солнечного
удара
1013.6 1004.2
12 19.04 ЮЗ 1 4000 м ясно +35.0 +14.1 29 +36 +40 очень
жарко
1014.1 1004.8 +36.0
18 19.04 штиль 0 4000 м ясно +26.0 +16.4 55 +29 +29 душно 1013.3 1003.7
21 19.04 штиль 0 4000 м ясно +23.0 +18.3 75 +29 +29 очень
душно
1012.0 1002.4
00 20.04 штиль 0 4000 м дым ясно +20.0 +16.7 81 +22 +22 комфорт 1011.5 1001.8
03 20.04 штиль 0 4000 м дым ясно +22.0 +17.2 74 +26 +33 душно 1012.5 1002.8 +20.0

 

Местоположение метеостанции Рахим Яр Хан (Пакистан): широта 28.43 долгота 70.32 высота над уровнем моря 83 м.

В архиве по умолчанию представлена погода в Рахим Яр Хан за последнюю неделю. Архивные данные за месяц целиком и за предыдущие месяцы, начиная с января 2011 года, Вы можете получить, выбрав интересующий диапазон дат из раскрывающегося списка и нажав кнопку "Ввод!".


*Определитесь, кто Вы:
робот инопланетянин человек

Внимание! Время в таблицах - всемирное. Для получения местного времени необходимо прибавить поправку, которая равна 5 ч.

Смотрите также архив погоды в соседних городах и на ближайших метеорологических станциях:

Погода в Ханпуре (Пакистан) (43 км)
Погода в Рохри (Пакистан) (163 км)
Погода в Бархане (Пакистан) (171 км)
Погода в Суккуре (Пакистан) (172 км)
Погода в Бахавалпуре (Пакистан) (178 км)
Погода а Бахавалпур аэропорту (Пакистан) (178 км)
Погода в Джайсалмере (Раджастхан, Индия) (180 км)
Погода в Джейкобабаде (Пакистан) (182 км)
Погода в Дера Гази Хан (Пакистан) (183 км)
Погода в Мултане (Пакистан) (224 км)

Пояснения к столбцам:

Ветер - указаны скорость ветра в м/с - средняя за 10 мин, порывы в срок и между сроками (в фигурных скобках) и направление, откуда дует ветер: С - северный, СВ - северо-восточный, В - восточный, ЮВ - юго-восточный, Ю - южный, ЮЗ - юго-западный, З - западный, СЗ - северо-западный.
Видимость - горизонтальная дальность видимости в метрах или километрах. При видимости от 1 до 10 км при отсутствии осадков обычно наблюдается дымка, при ухудшении видимости до 1 км и менее - туман. В сухую погоду видимость может ухудшаться дымом, пылью или мглою.
Явления - указаны атмосферные явления, наблюдавшиеся в срок или в последний час перед сроком; фигурными скобками обозначены явления, наблюдавшиеся между сроками (за 1-3 часа до срока); квадратными скобками обозначены град или гололедные отложения с указанием их диаметра в мм.
Облачность - указаны через наклонную черту общая и нижняя облачность в баллах и высота нижней границы облаков в метрах; квадратными скобками обозначены формы облаков: Ci - перистые, Cs - перисто-слоистые, Cc - перисто-кучевые, Ac - высококучевые, As - высокослоистые, Sc - слоисто-кучевые, Ns - слоисто-дождевые, Cu - кучевые, Cb - кучево-дождевые. Подробнее классификацию облаков см. в Атласе облаков (PDF).
T - Температура воздуха - температура, измеренная на высоте 2 м над землей.
Td - Температура точки росы - температура, при понижении до которой содержащийся в воздухе водяной пар достигнет насыщения.
f - Относительная влажность воздуха - влажноcть воздуха, измеренная на высоте 2 м над землей.
Te - Эффективная температура - температура, которую ощущает одетый по сезону человек в тени. Характеристика душности погоды. При расчете учитывается влияние влажности воздуха и скорости ветра на теплоощущения человека.
Tes - Эффективная температура на солнце - температура, которую ощущает человек, с поправкой на солнечный нагрев. Характеристика знойности погоды. Зависит от высоты солнца над горизонтом, облачности и скорости ветра. Ночью, в пасмурную погоду, а также при ветре 12 м/с и более поправка равна нулю.
P - Атмосферное давление - приведенное к уровню моря атмосферное давление.
Po - Атмосферное давление - измеренное на уровне метеостанции атмосферное давление.
Tmin - Минимальная температура - минимум температуры воздуха на высоте 2 м над землей.
Tmax - Максимальная температура - максимум температуры воздуха на высоте 2 м над землей.
R - Количество осадков - Количество выпавших осадков за период времени, мм. При наведении курсора мыши на число - период времени, за который выпало указанное количество осадков.
R24 - Количество осадков - Количество выпавших осадков за 24 часа, мм.
S - Снежный покров - Высота снежного покрова, см. При наведении курсора мыши на число - состояние снежного покрова и степень покрытия местности в баллах.